Total_Precipitation_Accumulation
1.16 1.09 1.16 1.40 1.46 1.50 1.73 1.80 1.61 1.52 1.53 1.48 1.41 1.33 1.27 1.18 1.15 1.09 1.43 1.82 2.22 2.73 3.14 3.07 2.69 2.20 2.05 2.23 2.22 2.18 2.13 2.36 2.94 3.06 2.95 2.87 2.76 2.76 2.53 2.18 1.91 1.78 1.68
1.19 1.21 1.14 1.30 1.54 1.61 1.68 1.71 1.62 1.54 1.50 1.53 1.47 1.47 1.44 1.23 1.29 1.27 1.35 1.44 1.66 2.04 2.72 3.14 2.91 2.45 2.26 2.29 2.22 2.22 2.16 2.22 2.84 3.09 3.08 3.00 2.89 2.91 2.52 2.16 2.06 1.93 1.89
1.20 1.20 1.11 1.19 1.42 1.65 1.71 1.69 1.62 1.63 1.45 1.38 1.47 1.54 1.52 1.40 1.42 1.45 1.40 1.37 1.30 1.55 2.12 2.76 2.91 2.71 2.60 2.62 2.44 2.36 2.35 2.46 2.64 2.94 3.09 3.09 2.99 2.83 2.46 2.13 1.91 1.95 2.00
1.18 1.28 1.21 1.17 1.36 1.61 1.86 1.99 1.85 1.75 1.62 1.51 1.58 1.59 1.52 1.56 1.54 1.51 1.45 1.42 1.42 1.35 1.53 1.84 2.21 2.62 2.79 2.92 2.75 2.62 2.40 2.21 2.21 2.52 2.83 3.02 3.05 2.79 2.63 2.36 2.07 2.03 2.18
1.10 1.32 1.44 1.38 1.43 1.64 1.77 1.85 1.89 1.76 1.73 1.65 1.52 1.49 1.46 1.55 1.62 1.45 1.42 1.41 1.50 1.49 1.42 1.27 1.42 1.77 2.28 2.96 3.12 2.75 2.56 2.31 2.09 2.17 2.44 2.75 2.96 2.84 2.70 2.49 2.22 2.04 2.10
1.30 1.45 1.58 1.61 1.63 1.74 1.77 1.95 2.17 1.97 1.77 1.73 1.56 1.46 1.41 1.44 1.50 1.52 1.56 1.54 1.55 1.52 1.48 1.32 1.25 1.11 1.44 2.14 2.74 2.66 2.70 2.55 2.23 2.13 2.24 2.35 2.58 2.74 2.50 2.43 2.39 2.14 1.99
1.54 1.66 1.77 1.84 1.81 1.76 1.86 2.06 2.46 2.36 2.01 1.78 1.79 1.67 1.50 1.44 1.50 1.49 1.64 1.72 1.63 1.56 1.58 1.51 1.36 1.21 1.10 1.25 1.78 2.34 2.59 2.74 2.55 2.33 2.28 2.37 2.42 2.63 2.50 2.31 2.44 2.37 2.20
1.66 1.73 1.93 2.06 2.03 2.03 2.13 2.20 2.48 2.67 2.42 2.19 2.17 2.34 2.10 1.88 1.53 1.28 1.37 1.51 1.57 1.60 1.57 1.60 1.49 1.34 1.28 1.20 1.13 1.57 2.05 2.40 2.62 2.49 2.33 2.35 2.44 2.58 2.61 2.42 2.39 2.54 2.44
1.86 1.82 1.92 2.12 2.13 2.14 2.21 2.40 2.72 3.05 3.03 2.73 2.47 2.65 2.40 2.13 2.02 1.51 1.23 1.30 1.45 1.57 1.59 1.66 1.62 1.48 1.43 1.44 1.25 1.12 1.30 1.71 2.32 2.61 2.59 2.48 2.46 2.51 2.62 2.65 2.78 2.69 2.66
1.78 1.77 1.87 2.07 2.23 2.37 2.50 2.56 2.56 2.96 3.28 3.10 2.90 2.52 2.20 2.07 2.22 2.07 1.60 1.32 1.36 1.41 1.48 1.48 1.58 1.65 1.60 1.54 1.43 1.06 0.96 1.22 1.98 2.72 2.93 2.71 2.49 2.44 2.63 2.74 2.72 2.54 2.50
1.91 1.79 1.82 1.88 1.93 2.05 2.22 2.36 2.43 2.68 2.90 3.08 3.06 2.83 2.55 2.37 1.94 1.94 2.02 1.78 1.51 1.30 1.28 1.39 1.56 1.64 1.63 1.53 1.54 1.19 0.96 0.89 1.27 2.06 2.69 2.85 2.72 2.64 2.79 2.83 2.62 2.43 2.34
1.91 1.77 1.69 1.77 1.79 1.80 1.95 2.08 2.20 2.48 2.67 2.81 2.88 2.80 2.70 2.64 2.33 2.06 1.90 1.88 1.74 1.51 1.34 1.33 1.39 1.48 1.57 1.51 1.38 1.37 1.12 0.88 0.88 1.17 1.69 2.28 2.54 2.64 2.74 2.79 2.71 2.52 2.51
1.53 1.51 1.42 1.44 1.56 1.63 1.81 1.90 1.86 1.94 2.11 2.33 2.51 2.57 2.61 2.52 2.45 2.35 2.20 2.00 1.77 1.46 1.42 1.34 1.31 1.41 1.44 1.53 1.50 1.61 1.23 0.97 0.87 0.89 1.08 1.41 1.73 2.06 2.39 2.58 2.71 2.75 2.81
1.19 1.15 1.16 1.15 1.20 1.28 1.50 1.73 1.73 1.74 1.80 1.89 1.97 2.25 2.43 2.41 2.43 2.22 2.11 2.14 1.92 1.62 1.42 1.22 1.13 1.18 1.26 1.39 1.65 1.75 1.25 1.11 0.92 0.92 1.00 1.05 1.20 1.37 1.72 2.13 2.31 2.46 2.60
0.91 0.91 0.96 1.04 1.11 1.10 1.19 1.34 1.52 1.59 1.67 1.74 1.75 1.92 2.07 2.18 2.17 2.00 2.02 2.11 2.00 1.72 1.51 1.35 1.26 1.19 1.19 1.24 1.53 1.43 1.26 1.23 1.09 1.03 0.99 0.99 1.01 1.06 1.20 1.43 1.63 1.73 1.81
0.81 0.82 0.83 0.88 0.96 0.99 1.07 1.18 1.22 1.32 1.41 1.58 1.76 1.89 1.92 1.95 2.02 1.92 1.91 2.02 2.01 1.82 1.59 1.36 1.21 1.17 1.23 1.18 1.35 1.26 1.36 1.44 1.14 1.00 0.94 0.97 0.94 0.89 0.84 0.90 1.03 1.15 1.22
0.66 0.65 0.71 0.81 0.85 0.89 0.92 0.93 0.96 1.01 1.09 1.20 1.27 1.42 1.62 1.80 1.89 1.89 1.93 1.99 2.02 1.89 1.64 1.49 1.24 1.22 1.35 1.30 1.28 1.23 1.33 1.38 1.17 1.06 0.91 0.87 0.87 0.82 0.79 0.75 0.74 0.81 0.90
0.63 0.63 0.68 0.72 0.75 0.82 0.87 0.85 0.84 0.89 1.01 1.10 1.12 1.15 1.25 1.50 1.66 1.77 1.83 1.85 1.92 1.89 1.71 1.68 1.59 1.38 1.32 1.29 1.40 1.47 1.41 1.38 1.33 1.33 1.19 0.97 0.89 0.84 0.80 0.75 0.70 0.66 0.68
0.79 0.81 0.79 0.80 0.77 0.81 0.84 0.82 0.84 0.87 0.90 0.96 0.99 1.01 1.11 1.23 1.38 1.46 1.54 1.64 1.72 1.83 1.80 1.62 1.68 1.63 1.42 1.36 1.39 1.47 1.53 1.63 1.50 1.46 1.51 1.34 1.12 1.00 0.91 0.83 0.75 0.71 0.70
0.69 0.71 0.78 0.84 0.91 0.96 0.94 0.88 0.88 0.88 0.84 0.85 0.91 0.99 1.02 1.05 1.21 1.43 1.52 1.58 1.62 1.73 1.83 1.75 1.68 1.67 1.52 1.46 1.44 1.47 1.60 1.71 1.72 1.51 1.42 1.36 1.30 1.19 1.06 0.96 0.87 0.82 0.80
0.56 0.56 0.66 0.74 0.84 0.94 0.98 0.97 0.85 0.74 0.75 0.79 0.79 0.80 0.88 0.97 1.05 1.25 1.37 1.58 1.60 1.72 1.78 1.83 1.76 1.61 1.48 1.43 1.42 1.41 1.51 1.72 1.78 1.73 1.60 1.41 1.29 1.13 1.03 1.01 1.00 0.97 0.91
0.52 0.52 0.57 0.55 0.58 0.63 0.81 0.82 0.71 0.60 0.63 0.71 0.77 0.78 0.78 0.82 0.87 0.95 0.98 1.21 1.40 1.52 1.62 1.63 1.69 1.57 1.44 1.40 1.50 1.54 1.52 1.55 1.68 1.68 1.52 1.57 1.51 1.32 1.17 1.04 1.12 1.18 1.15
0.50 0.51 0.46 0.41 0.43 0.48 0.55 0.55 0.62 0.60 0.60 0.64 0.71 0.80 0.84 0.81 0.89 0.98 0.97 1.03 1.12 1.17 1.29 1.41 1.46 1.42 1.40 1.37 1.47 1.54 1.53 1.45 1.38 1.48 1.44 1.50 1.53 1.41 1.26 1.16 1.19 1.15 1.14
0.47 0.52 0.45 0.41 0.45 0.45 0.49 0.56 0.60 0.59 0.69 0.76 0.75 0.74 0.84 0.90 0.97 1.13 1.12 1.19 1.12 1.02 1.02 1.08 1.23 1.28 1.24 1.34 1.44 1.63 1.73 1.58 1.45 1.48 1.45 1.37 1.32 1.28 1.19 1.19 1.22 1.08 1.02
0.43 0.39 0.43 0.56 0.54 0.54 0.64 0.59 0.53 0.60 0.72 0.80 0.74 0.75 0.86 0.95 1.12 1.24 1.25 1.26 1.15 1.07 1.13 1.22 1.29 1.35 1.35 1.42 1.50 1.59 1.67 1.66 1.56 1.50 1.41 1.28 1.19 1.18 1.18 1.14 1.12 1.14 1.07
0.34 0.37 0.41 0.54 0.58 0.63 0.64 0.51 0.49 0.61 0.73 0.82 0.80 0.78 0.98 0.99 1.08 1.13 1.19 1.31 1.31 1.19 1.15 1.16 1.18 1.21 1.20 1.28 1.52 1.57 1.70 1.77 1.62 1.52 1.40 1.29 1.25 1.36 1.41 1.23 1.08 1.05 1.03